Radiation Dose at Monitoring Post of Fukushima Daini Nuclear Power Station
Date,Time,MP-1(microSv/h),MP-2(microSv/h),MP-3(microSv/h),MP-4(microSv/h),MP-5(microSv/h),MP-6(microSv/h),MP-7(microSv/h),Wind Direction,Wind Velocity(m/s),Rain
2023/05/23,00:00,0.157,0.144,0.217,0.208,0.220,0.130,0.091,northwest,4.1,Yes
2023/05/23,00:10,0.157,0.144,0.216,0.210,0.220,0.130,0.091,northwest,5.0,Yes
2023/05/23,00:20,0.156,0.144,0.215,0.208,0.218,0.129,0.090,north-northwest,3.8,Yes
2023/05/23,00:30,0.154,0.142,0.215,0.207,0.219,0.127,0.089,northwest,4.2,Yes
2023/05/23,00:40,0.154,0.142,0.213,0.207,0.217,0.127,0.089,northwest,5.3,Yes
2023/05/23,00:50,0.152,0.140,0.214,0.205,0.216,0.126,0.087,northwest,5.2,Yes
2023/05/23,01:00,0.152,0.139,0.213,0.204,0.215,0.125,0.086,northwest,5.3,Yes
2023/05/23,01:10,0.150,0.137,0.211,0.203,0.214,0.123,0.085,northwest,4.7,Yes
2023/05/23,01:20,0.149,0.136,0.210,0.202,0.214,0.122,0.083,north-northwest,5.5,Yes
2023/05/23,01:30,0.149,0.137,0.209,0.202,0.212,0.121,0.083,northwest,4.9,Yes
2023/05/23,01:40,0.147,0.135,0.208,0.201,0.212,0.121,0.082,north-northwest,4.8,Yes
2023/05/23,01:50,0.149,0.134,0.209,0.201,0.211,0.120,0.080,north-northwest,4.2,Yes
2023/05/23,02:00,0.146,0.134,0.207,0.201,0.211,0.120,0.080,north-northwest,3.4,Yes
2023/05/23,02:10,0.145,0.134,0.207,0.198,0.210,0.119,0.079,northwest,3.0,Yes
2023/05/23,02:20,0.146,0.133,0.207,0.200,0.209,0.119,0.079,northwest,3.4,Yes
2023/05/23,02:30,0.145,0.134,0.206,0.199,0.211,0.120,0.080,northwest,3.5,Yes
2023/05/23,02:40,0.147,0.134,0.208,0.200,0.210,0.119,0.080,northwest,3.2,Yes
2023/05/23,02:50,0.145,0.133,0.207,0.200,0.212,0.119,0.079,north-northwest,2.5,Yes
2023/05/23,03:00,0.145,0.133,0.205,0.198,0.209,0.118,0.079,northwest,2.7,Yes
2023/05/23,03:10,0.144,0.132,0.206,0.199,0.210,0.117,0.077,northwest,3.0,Yes
2023/05/23,03:20,0.143,0.132,0.205,0.197,0.208,0.118,0.078,northwest,3.1,Yes
2023/05/23,03:30,0.144,0.132,0.205,0.199,0.210,0.117,0.078,northwest,2.9,Yes
2023/05/23,03:40,0.145,0.132,0.207,0.198,0.210,0.117,0.078,northwest,2.5,Yes
2023/05/23,03:50,0.145,0.132,0.207,0.198,0.209,0.117,0.079,northwest,3.0,Yes
2023/05/23,04:00,0.146,0.132,0.207,0.199,0.210,0.118,0.078,northwest,3.6,Yes
2023/05/23,04:10,0.145,0.132,0.206,0.198,0.209,0.117,0.079,northwest,4.4,Yes
2023/05/23,04:20,0.145,0.133,0.206,0.199,0.211,0.117,0.079,northwest,4.5,Yes
2023/05/23,04:30,0.144,0.132,0.207,0.199,0.208,0.118,0.078,north-northwest,3.5,Yes
2023/05/23,04:40,0.145,0.133,0.206,0.198,0.210,0.118,0.079,north-northwest,3.3,Yes
2023/05/23,04:50,0.144,0.132,0.206,0.199,0.209,0.118,0.079,north-northwest,3.9,Yes
2023/05/23,05:00,0.145,0.132,0.206,0.198,0.210,0.118,0.078,north-northwest,3.9,Yes
2023/05/23,05:10,0.145,0.132,0.205,0.198,0.209,0.117,0.077,northwest,4.3,Yes
2023/05/23,05:20,0.144,0.132,0.206,0.198,0.209,0.117,0.078,northwest,4.4,Yes
2023/05/23,05:30,0.145,0.133,0.206,0.198,0.210,0.118,0.078,northwest,4.8,Yes
2023/05/23,05:40,0.145,0.133,0.206,0.200,0.209,0.118,0.079,northwest,5.2,Yes
2023/05/23,05:50,0.148,0.134,0.207,0.200,0.212,0.118,0.079,northwest,6.2,Yes
2023/05/23,06:00,0.147,0.134,0.207,0.201,0.209,0.120,0.079,northwest,6.5,Yes
2023/05/23,06:10,0.146,0.134,0.207,0.200,0.212,0.119,0.080,north-northwest,5.3,Yes
2023/05/23,06:20,0.146,0.134,0.208,0.199,0.210,0.119,0.079,north-northwest,5.5,Yes
2023/05/23,06:30,0.145,0.133,0.207,0.200,0.210,0.119,0.079,northwest,5.8,Yes
2023/05/23,06:40,0.146,0.132,0.207,0.197,0.210,0.117,0.078,northwest,5.9,Yes
2023/05/23,06:50,0.145,0.134,0.205,0.198,0.208,0.117,0.078,northwest,5.5,Yes
2023/05/23,07:00,0.145,0.132,0.205,0.197,0.209,0.117,0.077,northwest,5.5,Yes
2023/05/23,07:10,0.144,0.132,0.206,0.196,0.208,0.117,0.077,northwest,5.3,Yes
2023/05/23,07:20,0.144,0.131,0.206,0.197,0.209,0.116,0.077,northwest,5.7,Yes
2023/05/23,07:30,0.146,0.132,0.207,0.197,0.208,0.118,0.078,northwest,5.7,Yes
2023/05/23,07:40,0.146,0.134,0.207,0.200,0.211,0.118,0.079,north-northwest,5.4,Yes
2023/05/23,07:50,0.146,0.134,0.206,0.198,0.210,0.118,0.079,northwest,4.5,Yes
2023/05/23,08:00,0.146,0.134,0.208,0.200,0.211,0.120,0.079,northwest,3.0,Yes
2023/05/23,08:10,0.146,0.135,0.208,0.200,0.211,0.119,0.080,northwest,3.5,Yes
2023/05/23,08:20,0.147,0.133,0.207,0.200,0.209,0.120,0.080,northwest,3.3,Yes
2023/05/23,08:30,0.145,0.134,0.207,0.201,0.211,0.118,0.079,northwest,3.1,Yes
2023/05/23,08:40,0.146,0.133,0.207,0.197,0.210,0.119,0.079,northwest,3.6,Yes
2023/05/23,08:50,0.145,0.133,0.208,0.199,0.210,0.118,0.079,northwest,3.3,Yes
2023/05/23,09:00,0.145,0.132,0.205,0.198,0.210,0.118,0.079,northwest,3.8,Yes
2023/05/23,09:10,0.144,0.132,0.207,0.199,0.210,0.116,0.077,northwest,3.3,Yes
2023/05/23,09:20,0.145,0.132,0.205,0.195,0.208,0.117,0.077,northwest,3.5,Yes
2023/05/23,09:30,0.144,0.132,0.205,0.198,0.209,0.117,0.077,northwest,2.7,Yes
2023/05/23,09:40,0.145,0.132,0.205,0.196,0.209,0.117,0.078,north-northwest,2.7,Yes
2023/05/23,09:50,0.146,0.132,0.207,0.199,0.209,0.118,0.078,north-northwest,2.6,Yes
2023/05/23,10:00,0.145,0.132,0.206,0.198,0.210,0.119,0.079,north-northwest,2.2,Yes
2023/05/23,10:10,0.146,0.134,0.207,0.200,0.212,0.118,0.078,north-northwest,3.0,Yes
2023/05/23,10:20,0.146,0.134,0.207,0.199,0.210,0.119,0.079,northwest,2.2,Yes
2023/05/23,10:30,0.146,0.133,0.208,0.200,0.211,0.119,0.078,north-northwest,1.5,Yes
2023/05/23,10:40,0.145,0.133,0.207,0.197,0.210,0.117,0.078,north-northwest,1.8,Yes
2023/05/23,10:50,0.145,0.133,0.206,0.199,0.209,0.116,0.077,north-northwest,2.2,Yes
2023/05/23,11:00,0.145,0.132,0.208,0.198,0.209,0.117,0.078,north-northwest,2.3,Yes
2023/05/23,11:10,0.144,0.132,0.205,0.199,0.209,0.117,0.077,north-northwest,3.5,Yes
2023/05/23,11:20,0.145,0.133,0.209,0.198,0.210,0.118,0.078,north-northwest,3.7,Yes
2023/05/23,11:30,0.145,0.132,0.206,0.198,0.210,0.118,0.078,north-northwest,3.2,Yes
2023/05/23,11:40,0.145,0.132,0.208,0.199,0.209,0.118,0.078,north-northwest,3.3,Yes
2023/05/23,11:50,0.146,0.133,0.207,0.198,0.212,0.118,0.078,northwest,3.1,Yes
2023/05/23,12:00,0.146,0.133,0.208,0.200,0.209,0.119,0.078,north-northwest,3.2,Yes
2023/05/23,12:10,0.146,0.134,0.206,0.198,0.211,0.119,0.079,north-northwest,3.5,Yes
2023/05/23,12:20,0.145,0.133,0.206,0.200,0.209,0.118,0.077,north-northwest,3.2,Yes
2023/05/23,12:30,0.146,0.134,0.208,0.199,0.211,0.118,0.078,north-northwest,2.7,Yes
2023/05/23,12:40,0.146,0.135,0.207,0.202,0.210,0.118,0.079,north-northwest,3.9,Yes
2023/05/23,12:50,0.148,0.134,0.207,0.200,0.213,0.119,0.079,north-northwest,3.3,Yes
2023/05/23,13:00,0.146,0.135,0.207,0.201,0.210,0.119,0.078,northwest,3.4,Yes
2023/05/23,13:10,0.146,0.133,0.207,0.200,0.210,0.119,0.079,north-northwest,2.9,Yes
2023/05/23,13:20,0.146,0.133,0.206,0.200,0.209,0.118,0.078,north-northwest,2.6,Yes
2023/05/23,13:30,0.145,0.132,0.205,0.199,0.210,0.117,0.077,north-northwest,2.7,Yes
2023/05/23,13:40,0.144,0.132,0.206,0.197,0.209,0.117,0.077,north-northwest,2.6,Yes
2023/05/23,13:50,0.144,0.132,0.205,0.197,0.209,0.117,0.077,north,3.2,Yes
2023/05/23,14:00,0.145,0.132,0.206,0.198,0.208,0.117,0.078,north,3.7,Yes
2023/05/23,14:10,0.145,0.133,0.206,0.198,0.211,0.117,0.077,northwest,3.1,Yes
2023/05/23,14:20,0.146,0.133,0.207,0.198,0.208,0.118,0.079,north-northwest,3.1,Yes
2023/05/23,14:30,0.146,0.134,0.205,0.200,0.211,0.118,0.078,north,2.7,Yes
2023/05/23,14:40,0.146,0.133,0.206,0.199,0.210,0.118,0.078,north-northwest,2.5,Yes
2023/05/23,14:50,0.145,0.133,0.206,0.197,0.211,0.117,0.077,northwest,1.5,Yes
2023/05/23,15:00,0.146,0.133,0.205,0.199,0.209,0.118,0.078,north,2.9,Yes
2023/05/23,15:10,0.145,0.132,0.206,0.198,0.209,0.117,0.077,north-northwest,3.1,Yes
2023/05/23,15:20,0.144,0.132,0.206,0.199,0.208,0.117,0.078,northwest,3.3,Yes
2023/05/23,15:30,0.144,0.131,0.206,0.198,0.209,0.117,0.077,northwest,2.9,Yes
2023/05/23,15:40,0.144,0.131,0.205,0.198,0.207,0.116,0.077,north-northwest,3.3,Yes
2023/05/23,15:50,0.144,0.130,0.204,0.196,0.210,0.117,0.076,north-northwest,3.5,Yes
2023/05/23,16:00,0.143,0.131,0.205,0.198,0.208,0.116,0.076,north-northwest,4.0,Yes
2023/05/23,16:10,0.143,0.131,0.204,0.195,0.208,0.116,0.075,northwest,3.2,Yes
2023/05/23,16:20,0.143,0.131,0.204,0.197,0.207,0.116,0.075,north-northwest,3.8,Yes
2023/05/23,16:30,0.143,0.131,0.203,0.195,0.208,0.115,0.075,north-northwest,4.8,No
2023/05/23,16:40,0.143,0.130,0.205,0.195,0.207,0.115,0.074,north-northwest,4.1,Yes
2023/05/23,16:50,0.143,0.131,0.204,0.196,0.208,0.115,0.075,north-northwest,5.3,Yes
2023/05/23,17:00,0.143,0.129,0.205,0.197,0.208,0.116,0.075,north-northwest,6.3,Yes
2023/05/23,17:10,0.144,0.130,0.203,0.197,0.206,0.115,0.075,north-northwest,6.1,Yes
2023/05/23,17:20,0.142,0.131,0.203,0.197,0.209,0.116,0.076,north-northwest,5.5,Yes
2023/05/23,17:30,0.144,0.130,0.204,0.197,0.208,0.116,0.076,north-northwest,6.2,Yes
2023/05/23,17:40,0.143,0.130,0.204,0.195,0.209,0.116,0.076,north-northwest,5.9,Yes
2023/05/23,17:50,0.144,0.130,0.204,0.197,0.207,0.117,0.076,north-northwest,5.7,Yes
2023/05/23,18:00,0.144,0.131,0.204,0.196,0.208,0.117,0.076,north-northwest,6.0,Yes
2023/05/23,18:10,0.143,0.130,0.206,0.197,0.208,0.116,0.076,north-northwest,6.6,Yes
2023/05/23,18:20,0.144,0.130,0.205,0.197,0.208,0.116,0.076,north-northwest,7.9,Yes
2023/05/23,18:30,0.144,0.131,0.205,0.196,0.209,0.117,0.076,north-northwest,6.0,Yes
2023/05/23,18:40,0.145,0.130,0.205,0.198,0.207,0.116,0.076,north-northwest,6.1,Yes
2023/05/23,18:50,0.144,0.130,0.205,0.196,0.210,0.117,0.076,north,5.8,Yes
2023/05/23,19:00,0.144,0.130,0.203,0.197,0.207,0.116,0.076,north,6.3,Yes
2023/05/23,19:10,0.143,0.130,0.204,0.197,0.208,0.116,0.075,north-northwest,6.4,Yes
2023/05/23,19:20,0.143,0.130,0.203,0.196,0.207,0.116,0.075,north,6.9,Yes
2023/05/23,19:30,0.143,0.130,0.203,0.197,0.208,0.116,0.075,north,6.2,Yes
2023/05/23,19:40,0.143,0.129,0.205,0.196,0.209,0.115,0.074,north-northwest,6.2,Yes
2023/05/23,19:50,0.144,0.132,0.204,0.198,0.207,0.115,0.075,north-northwest,5.8,Yes
2023/05/23,20:00,0.146,0.133,0.206,0.199,0.209,0.118,0.078,north-northwest,6.0,Yes
2023/05/23,20:10,0.148,0.136,0.209,0.200,0.209,0.120,0.080,north-northwest,6.5,Yes
2023/05/23,20:20,0.150,0.138,0.211,0.203,0.214,0.124,0.083,north-northwest,6.8,Yes
2023/05/23,20:30,0.153,0.141,0.214,0.205,0.215,0.126,0.086,north-northwest,6.7,Yes
2023/05/23,20:40,0.154,0.142,0.213,0.206,0.218,0.129,0.087,north-northwest,7.6,Yes
2023/05/23,20:50,0.153,0.140,0.213,0.205,0.218,0.127,0.087,north-northwest,6.0,Yes
2023/05/23,21:00,0.152,0.140,0.213,0.204,0.215,0.126,0.086,north-northwest,6.8,Yes
2023/05/23,21:10,0.152,0.138,0.212,0.203,0.214,0.125,0.084,north-northwest,7.8,Yes
2023/05/23,21:20,0.149,0.136,0.209,0.201,0.213,0.122,0.082,north-northwest,6.7,Yes
2023/05/23,21:30,0.148,0.135,0.209,0.201,0.212,0.121,0.082,north-northwest,6.9,Yes
2023/05/23,21:40,0.147,0.135,0.206,0.199,0.212,0.120,0.079,northwest,6.9,Yes
2023/05/23,21:50,0.146,0.134,0.206,0.197,0.209,0.119,0.079,north-northwest,6.5,Yes
2023/05/23,22:00,0.145,0.133,0.205,0.197,0.209,0.118,0.078,north-northwest,7.8,Yes
2023/05/23,22:10,0.144,0.131,0.205,0.197,0.208,0.117,0.076,northwest,6.9,Yes
2023/05/23,22:20,0.145,0.130,0.203,0.196,0.208,0.116,0.076,northwest,7.6,Yes
2023/05/23,22:30,0.143,0.131,0.203,0.196,0.208,0.115,0.076,northwest,8.1,Yes
2023/05/23,22:40,0.144,0.129,0.203,0.194,0.207,0.115,0.076,north-northwest,7.9,Yes
2023/05/23,22:50,0.142,0.129,0.203,0.195,0.207,0.115,0.076,northwest,7.7,Yes
2023/05/23,23:00,0.142,0.129,0.203,0.195,0.205,0.114,0.075,northwest,7.8,Yes
2023/05/23,23:10,0.143,0.129,0.203,0.194,0.208,0.115,0.075,north-northwest,7.5,Yes
2023/05/23,23:20,0.142,0.130,0.204,0.195,0.207,0.114,0.074,north-northwest,8.3,No
2023/05/23,23:30,0.142,0.129,0.203,0.194,0.205,0.115,0.073,northwest,7.8,No
2023/05/23,23:40,0.142,0.128,0.202,0.194,0.206,0.114,0.073,north-northwest,7.7,No
2023/05/23,23:50,0.141,0.130,0.204,0.195,0.206,0.114,0.074,north-northwest,7.2,No
